Location: Courcelles
(49.2596°N, 1.7419°E)
Time: 06:37:00
(UTC+00:00)

COSMO-SKYMED 1 - Pass Details

Date: 17 November 2025
Orbit: 579 x 581 km, 97.9° (Epoch: 06 December)

Event Time Altitude Azimuth Distance (km) Brightness Sun altitude
Exits shadow 17:21:15 17° 69° (ENE) 1,490 3.9 -11.7°
Maximum altitude 17:22:26 19° 92° (E) 1,397 3.8 -11.9°
Drops below altitude 10° 17:25:25 10° 139° (SE) 1,893 4.8 -12.4°
Sets 17:28:04 0° 157° (SSE) 2,786 5.8 -12.8°
